タットル-ジャコビニ-クレサーク彗星

41P/Tuttle-Giacobini-Kresak (2017)

English version
Home page
Updated on March 4, 2018

---------------------------------------------------------------------

・ プロフィール

・ 写真集

・ 軌道要素

Epoch 2017 Mar. 28.0 TT = JDT 2457840.5
T 2017 Apr. 12.75183 TT                                 MPCW
q   1.0450420            (2000.0)            P               Q
n   0.18192382     Peri.   62.15622     -0.91177515     +0.39813152
a   3.0846768      Node   141.06810     -0.41003379     -0.86861843
e   0.6612151      Incl.    9.22910     -0.02320259     -0.29494630
P   5.42
From 3710 observations 2006 Feb. 24-2017 June 5, mean residual 0".5.
     Nongravitational parameters A1 = +0.62, A2 = -0.0075.

・ 星図

・ 光度変化

        m1 = 10.0 + 5 logΔ + 33.0 log r

---------------------------------------------------------------------

軌道要素はM.P.E.C. 2017-L52に掲載されたものです。
星図はステラナビゲータ Ver.10 (アストロアーツ) で作成したものです。
光度グラフはComet for Windowsで作成したものです。

---------------------------------------------------------------------

Copyright(C) Seiichi Yoshida (comet@aerith.net). All rights reserved.